Location: Pinon Hills
(34.4429°N, 117.6403°W)
Time: 14:16:18
(UTC-08:00)

Uosat F - Visible Passes

Search period start: 02 December 2016 00:00
Search period end: 12 December 2016 00:00
Orbit: 750 x 761 km, 98.8° (Epoch: 01 December)

Date Brightness Start Highest point End Pass type
(mag) Time Alt. Az. Time Alt. Az. Time Alt. Az.
02 Dec 12.5 05:44:37 10° NNE 05:49:22 42° E 05:54:06 10° S visible
02 Dec 13.8 18:34:19 10° SW 18:37:48 19° W 18:41:19 10° NW visible
03 Dec 14.1 05:06:35 10° NE 05:09:42 16° E 05:12:47 10° SE visible
03 Dec 12.1 17:53:19 10° S 17:58:09 48° W 18:03:02 10° NNW visible
04 Dec 11.5 06:04:16 10° NNE 06:09:16 69° ESE 06:14:14 10° S visible
04 Dec 11.1 17:13:44 10° SSE 17:18:43 65° ENE 17:23:43 10° N visible
04 Dec 14.3 18:56:18 10° WSW 18:57:51 11° W 18:59:24 10° WNW visible
05 Dec 13.4 05:25:31 10° NE 05:29:42 26° E 05:33:51 10° SSE visible
05 Dec 13.1 18:13:42 10° SSW 18:18:05 30° W 18:22:30 10° NW visible
06 Dec 11.2 17:33:31 10° S 17:38:33 79° WSW 17:43:36 10° NNW visible
07 Dec 12.5 05:44:54 10° NNE 05:49:38 42° E 05:54:21 10° S visible
07 Dec 13.8 18:34:33 10° SW 18:38:04 19° W 18:41:36 10° NW visible
08 Dec 14.1 05:06:53 10° NE 05:09:58 16° E 05:13:01 10° SE visible
08 Dec 12.1 17:53:34 10° S 17:58:26 49° W 18:03:18 10° NNW visible
09 Dec 11.5 06:04:32 10° NNE 06:09:32 68° ESE 06:14:29 10° S visible
09 Dec 11.1 17:14:01 10° SSE 17:18:59 65° ENE 17:23:58 10° N visible
09 Dec 14.3 18:56:30 10° WSW 18:58:06 11° W 18:59:43 10° WNW visible
10 Dec 13.4 05:25:48 10° NE 05:29:57 26° E 05:34:05 10° SSE visible
10 Dec 13.0 18:13:58 10° SSW 18:18:21 30° W 18:22:47 10° NW visible
11 Dec 11.2 17:33:47 10° S 17:38:49 80° WSW 17:43:52 10° NNW visible
